Vertical_Velocity
-3 -2 3 1 1 -3 7 -7 11 -9 -0 -8 -5 -2 -4 0 2 -1 -2 -1 -1 -1 -1 -1 -1 1 -0 -1 2 4 -1 -3 5 6 4 5 5 4 3 1 1 2 2 -0
-2 -0 2 1 -2 0 -0 -4 1 2 -6 -4 -4 3 0 -4 2 -3 -14 -3 8 -0 4 -3 -1 1 5 1 0 2 -1 1 3 2 4 4 2 4 4 5 4 -0 0 2
-2 -0 3 7 -7 -1 -3 0 0 2 -17 -1 0 -0 -2 -3 1 -3 -1 1 -2 -2 4 10 3 5 8 5 4 1 3 4 4 3 2 3 4 3 3 2 5 0 -0 1
-1 1 4 -10 -0 3 6 -3 -0 3 -1 -2 -4 -4 -1 -1 0 -1 -0 -2 4 -0 4 1 1 2 0 4 5 6 4 4 4 3 3 4 3 1 0 -1 0 0 1 5
2 1 -7 -9 -1 -4 1 -24 -1 -1 -2 -2 -0 3 -12 2 3 -3 4 2 2 2 0 2 0 1 -1 -0 -0 -0 1 1 -0 -1 -0 -2 -1 -0 2 1 1 2 2 1
2 3 -1 -2 -1 -1 1 -8 2 2 -1 -0 3 6 -11 4 -4 0 2 5 0 1 4 5 3 2 -0 -2 -2 -2 -2 -2 1 1 1 -0 1 2 1 2 2 2 1 -0
-1 0 -7 -4 -0 2 -8 -7 -2 3 3 1 1 -5 1 -1 4 -5 1 2 11 1 3 4 5 2 1 1 -1 1 1 -2 -2 0 3 4 4 2 3 1 1 1 -0 -0
4 4 -8 1 1 -5 -10 -12 5 -2 -1 1 6 2 6 6 9 -4 1 1 12 5 5 3 -3 -2 -2 -3 3 3 3 1 1 1 1 0 1 -1 -0 0 0 2 3 3
-3 -11 -3 -7 1 -12 5 -3 -3 4 3 3 1 3 8 -2 6 -5 -0 -3 1 11 1 4 11 12 2 -2 0 -4 0 -2 1 3 0 1 1 1 1 3 3 1 0 0
3 -2 -4 -2 -9 6 -1 10 6 7 1 -4 1 0 10 -3 -5 -3 1 0 7 2 -0 -3 -0 -4 10 4 5 -2 -2 -0 0 -0 1 -0 -1 0 -0 -1 -1 -1 -0 0
-4 -3 -1 3 0 0 -5 3 4 0 5 -5 -2 1 3 8 1 0 -6 7 6 3 2 -7 5 3 -9 7 7 -5 -3 -3 -3 -2 -1 -3 -3 -1 0 -2 0 -0 -1 -1
-8 -4 4 -4 -2 -3 0 -1 1 4 6 10 -4 -9 -0 -4 -5 6 4 3 2 5 6 11 -4 -17 0 5 7 -0 -5 -2 -3 0 -1 -1 1 -1 -0 -1 -1 -1 -1 -0
-13 9 0 1 -2 1 -1 -0 12 -1 -3 1 3 7 -2 -6 5 3 -5 -5 6 -0 4 8 -5 -8 1 2 1 -3 -1 -0 -0 0 -1 -2 -2 -1 -2 1 0 -2 -2 -2
-2 13 -4 1 -6 0 2 -0 2 23 -18 4 -0 1 2 3 3 6 9 4 8 -2 0 -2 -0 -8 -2 3 3 -2 -1 0 -2 -1 -1 -2 0 0 0 0 -0 -1 -1 -0
-8 11 -9 5 1 2 4 1 -3 13 -2 5 -5 4 -4 -3 4 -1 8 4 1 7 1 0 -0 -3 -2 3 -0 -2 -1 -3 -2 -1 -1 -1 -1 -1 -3 -2 -1 -1 1 2
1 3 0 3 3 1 5 -3 -3 10 10 -8 2 5 4 -5 9 -2 3 7 -8 -5 7 1 0 -2 -1 -1 0 -2 -4 -2 -1 -1 -1 -2 -2 -1 -1 -1 -2 -2 -1 -1
1 -4 1 2 5 -2 4 -1 -2 2 2 2 5 -2 2 -1 5 -0 4 3 3 -5 4 -0 -5 -1 0 2 -0 -2 -3 -2 1 0 -1 -2 -2 -1 -1 -1 -0 1 -0 -1
-0 -0 0 1 4 3 3 -5 -2 4 5 -1 -4 1 -1 4 -3 3 3 5 2 -5 -1 1 1 -1 0 1 -1 -2 -0 0 -0 -2 -3 -2 -0 -0 -1 -0 -0 -1 -3 -4
1 -0 2 -0 2 2 3 -6 -4 9 7 3 2 1 0 -1 1 1 6 -0 -1 -3 -1 2 2 1 -1 -1 0 -1 -2 -2 -3 -3 -0 0 -0 -1 -2 -3 -3 -4 -3 -0
-1 1 1 1 3 3 4 -3 -2 4 7 5 2 2 1 1 4 -0 3 -8 1 -4 -0 0 2 -1 -2 -1 -1 -3 -2 -1 1 -0 -2 -3 -4 -3 -3 -3 -3 -1 -1 -3
2 2 2 1 1 0 -1 1 1 -3 2 8 2 -2 -2 0 1 3 0 -6 0 0 -1 1 1 -3 -2 0 0 -1 -1 -2 -3 -4 -4 -4 -2 -2 -2 -1 -1 -3 -2 -1
2 1 2 4 5 -2 2 6 4 3 1 -2 -5 7 -8 -0 -1 -0 1 -3 -2 3 1 1 -2 -2 -2 -0 -3 -2 -3 -4 -3 -3 -3 -2 -0 -1 -2 -3 -2 -1 -1 -2
3 3 1 3 5 1 4 5 2 4 -1 1 -2 -1 -3 1 3 -0 -8 1 1 1 -1 -2 -1 -1 -2 -1 -2 -3 -4 -2 -2 -2 1 0 -3 -3 -2 -1 -1 -2 -2 -2
2 4 2 7 1 3 -1 11 6 4 -5 3 6 -2 -1 -4 -4 4 -1 -1 -1 -0 -1 -1 -0 -1 1 -4 -4 -2 -2 -1 1 -0 -4 -3 -2 -1 -1 -2 -2 -3 -1 0
1 1 3 -0 -4 -1 3 6 -3 5 8 -1 -3 2 -0 -1 3 -1 0 -1 1 0 -3 -2 -1 -2 -3 -2 -1 0 1 -1 -4 -3 -2 -1 -1 -1 -2 -2 -2 0 0 0
7 -1 1 6 -3 -2 -1 4 -5 1 0 -5 -1 4 -0 -1 -1 1 -1 1 -2 -2 -3 -2 -1 -0 0 0 0 -1 -4 -3 -3 -2 -1 -1 -1 -1 -1 0 1 0 0 0
1 4 0 -1 1 2 0 -1 -3 -4 1 3 -5 -1 -3 -1 2 0 1 -1 -2 -2 -0 0 -0 -0 -0 -1 -3 -3 -2 -2 -1 -0 -0 -0 -2 -1 1 1 -0 -1 -0 -0
Height
1440 1438 1433 1432 1433 1428 1428 1422 1418 1400 1400 1399 1394 1390 1388 1388 1388 1391 1393 1394 1393 1395 1397 1401 1405 1407 1410 1413 1417 1421 1426 1430 1433 1440 1443 1446 1449 1455 1459 1461 1463 1465 1467 1467
1439 1436 1433 1428 1416 1419 1415 1414 1407 1401 1393 1389 1387 1386 1386 1385 1386 1387 1390 1390 1389 1391 1392 1396 1399 1402 1406 1409 1412 1416 1419 1423 1429 1434 1437 1440 1444 1447 1449 1452 1455 1456 1457 1457
1428 1423 1425 1422 1411 1410 1399 1395 1390 1392 1384 1382 1382 1382 1381 1381 1382 1383 1383 1383 1386 1386 1387 1390 1393 1397 1401 1404 1407 1411 1415 1419 1424 1428 1432 1435 1438 1441 1443 1445 1448 1448 1450 1451
1437 1432 1420 1392 1397 1398 1394 1383 1381 1378 1377 1377 1374 1374 1375 1376 1376 1374 1374 1375 1377 1382 1383 1384 1388 1391 1395 1399 1403 1407 1410 1414 1418 1422 1425 1429 1432 1434 1437 1439 1441 1443 1444 1444
1432 1423 1403 1389 1392 1395 1401 1386 1379 1375 1373 1371 1371 1371 1368 1369 1370 1368 1367 1369 1371 1373 1377 1379 1383 1386 1391 1395 1399 1403 1407 1410 1414 1417 1420 1424 1427 1430 1432 1434 1436 1437 1437 1438
1432 1426 1407 1388 1383 1388 1391 1387 1381 1377 1373 1369 1368 1371 1360 1364 1365 1363 1365 1361 1365 1369 1373 1375 1380 1384 1389 1393 1398 1402 1407 1411 1415 1417 1420 1422 1425 1427 1429 1430 1432 1433 1434 1434
1429 1424 1402 1388 1387 1384 1393 1391 1383 1378 1371 1363 1362 1360 1361 1362 1361 1361 1366 1365 1366 1370 1373 1377 1379 1384 1389 1394 1400 1405 1408 1412 1416 1419 1422 1423 1425 1427 1428 1430 1431 1431 1432 1432
1422 1421 1415 1392 1388 1388 1392 1385 1382 1378 1372 1363 1360 1359 1359 1360 1356 1363 1370 1372 1375 1376 1376 1379 1385 1390 1394 1398 1404 1408 1411 1413 1417 1419 1421 1423 1425 1426 1427 1428 1429 1430 1430 1431
1408 1405 1396 1392 1391 1387 1384 1377 1375 1374 1371 1366 1360 1358 1352 1358 1362 1369 1374 1377 1382 1377 1378 1382 1389 1397 1392 1399 1405 1411 1414 1417 1419 1421 1422 1424 1425 1426 1427 1429 1430 1431 1433 1434
1400 1391 1393 1387 1385 1384 1381 1373 1368 1369 1366 1364 1360 1359 1356 1360 1368 1376 1381 1384 1383 1382 1381 1384 1391 1399 1399 1404 1405 1412 1415 1418 1421 1423 1424 1425 1427 1428 1429 1430 1432 1434 1435 1436
1391 1387 1387 1385 1383 1381 1373 1368 1367 1366 1364 1363 1363 1360 1362 1365 1368 1374 1381 1384 1385 1387 1383 1390 1394 1397 1406 1412 1410 1411 1415 1420 1424 1426 1426 1428 1430 1432 1432 1434 1436 1437 1438 1438
1389 1385 1385 1381 1381 1379 1373 1369 1365 1363 1364 1364 1361 1363 1367 1369 1373 1377 1380 1384 1386 1388 1388 1389 1390 1404 1412 1414 1415 1415 1418 1422 1426 1428 1429 1432 1433 1434 1435 1437 1437 1438 1438 1439
1384 1381 1382 1379 1378 1377 1375 1372 1366 1362 1363 1363 1363 1364 1368 1372 1378 1379 1383 1386 1388 1388 1390 1390 1395 1409 1415 1415 1418 1421 1422 1425 1428 1430 1431 1434 1435 1437 1437 1438 1438 1437 1437 1437
1379 1379 1377 1375 1374 1373 1372 1372 1369 1363 1364 1364 1366 1368 1369 1373 1376 1379 1382 1384 1389 1386 1393 1398 1403 1410 1414 1421 1422 1423 1427 1428 1430 1431 1433 1435 1436 1437 1438 1438 1438 1438 1439 1439
1370 1372 1372 1370 1369 1369 1369 1370 1369 1363 1363 1364 1369 1369 1373 1378 1381 1386 1386 1387 1390 1394 1398 1401 1406 1413 1422 1426 1425 1427 1429 1431 1432 1433 1434 1435 1436 1437 1438 1438 1438 1439 1439 1438
1365 1364 1365 1364 1363 1364 1365 1366 1369 1366 1364 1364 1367 1374 1374 1382 1384 1387 1390 1394 1396 1400 1407 1410 1414 1419 1425 1428 1429 1429 1431 1433 1435 1435 1435 1435 1436 1437 1437 1437 1437 1437 1436 1433
1361 1361 1362 1363 1360 1361 1363 1364 1369 1372 1367 1366 1371 1376 1380 1385 1387 1391 1396 1400 1400 1406 1412 1415 1419 1425 1428 1430 1430 1432 1433 1435 1436 1435 1434 1435 1436 1436 1435 1435 1436 1435 1432 1431
1358 1359 1360 1361 1359 1358 1358 1362 1371 1373 1368 1367 1374 1379 1384 1388 1391 1397 1400 1403 1405 1410 1417 1422 1425 1428 1430 1432 1433 1434 1435 1435 1435 1434 1435 1436 1435 1435 1434 1434 1434 1433 1432 1431
1355 1354 1355 1355 1356 1357 1358 1364 1375 1375 1371 1372 1376 1381 1386 1392 1398 1401 1405 1407 1411 1415 1423 1427 1429 1430 1431 1433 1434 1434 1435 1435 1435 1435 1435 1435 1435 1434 1434 1434 1433 1433 1432 1431
1353 1354 1354 1355 1357 1359 1358 1365 1378 1374 1376 1375 1380 1384 1390 1397 1403 1405 1409 1412 1418 1421 1426 1429 1431 1431 1432 1434 1434 1434 1435 1435 1435 1435 1435 1436 1436 1435 1434 1434 1434 1433 1432 1430
1353 1353 1353 1354 1356 1359 1365 1372 1374 1375 1381 1383 1385 1389 1397 1401 1409 1412 1414 1415 1423 1427 1429 1431 1432 1432 1434 1434 1435 1436 1436 1436 1436 1436 1437 1437 1437 1436 1436 1435 1434 1432 1430 1428
1356 1356 1357 1358 1359 1362 1372 1375 1376 1378 1382 1387 1393 1396 1402 1407 1413 1416 1419 1421 1426 1430 1432 1432 1433 1435 1435 1436 1437 1438 1438 1439 1438 1438 1438 1438 1438 1438 1437 1435 1433 1431 1430 1427
1360 1361 1363 1365 1366 1368 1375 1377 1380 1384 1388 1395 1399 1403 1409 1414 1418 1418 1420 1427 1430 1433 1434 1434 1435 1437 1438 1438 1439 1440 1440 1441 1440 1440 1440 1440 1439 1438 1436 1434 1432 1431 1429 1426
1366 1368 1369 1371 1373 1378 1379 1384 1388 1391 1397 1403 1404 1409 1414 1418 1421 1424 1425 1429 1433 1435 1435 1437 1438 1439 1440 1440 1441 1441 1442 1441 1441 1442 1441 1440 1438 1437 1436 1434 1432 1429 1426 1423
1373 1373 1375 1378 1379 1386 1389 1391 1396 1402 1404 1406 1412 1417 1421 1424 1425 1428 1430 1432 1435 1437 1438 1439 1440 1440 1441 1442 1442 1442 1442 1443 1442 1441 1440 1439 1438 1437 1435 1433 1429 1426 1423 1420
1377 1378 1383 1385 1388 1393 1396 1400 1401 1407 1409 1413 1418 1422 1425 1428 1431 1431 1434 1435 1437 1439 1440 1441 1442 1442 1443 1443 1443 1444 1443 1443 1441 1441 1440 1439 1438 1436 1433 1430 1427 1424 1421 1418
1384 1385 1388 1392 1397 1401 1405 1407 1410 1413 1418 1420 1420 1426 1430 1433 1434 1434 1436 1437 1439 1441 1443 1443 1444 1444 1444 1445 1445 1444 1443 1442 1441 1441 1440 1438 1435 1433 1430 1428 1425 1422 1419 1416